Zurück zum Katalog

THOR BURNER 2 R/B

AktivSSO
NORAD 4954·ROCKET BODY·🇺🇸 United States

Gestartet Feb 17, 1971 von Vandenberg Space Force Base

Loading…

Nächste Überflüge

TLE

Source: Space-Track
1  4954U 71012B   26225.11928889  .00000063  00000-0  33396-4 0  9993
2  4954  98.3212  77.3936 0037599  61.7696 298.7280 14.39789359904065

Verfolge THOR BURNER 2 R/B in Echtzeit mit AllMySat

Download on the App Store